Weather History for KPPA - December, 2012

Change the Weather History Date:

Thursday, December 20, 2012

  Actual Average (WUND) Record (WUND)
Temperature  
Mean Temperature 32 °F -  
Max Temperature 44 °F - - (-1)
Min Temperature 21 °F - - (-1)
Degree Days  
Heating Degree Days 32    
Moisture  
Dew Point 4 °F    
Average Humidity 35    
Maximum Humidity 69    
Minimum Humidity 13    
Precipitation  
Precipitation 0.00 in - - ()
Sea Level Pressure  
Sea Level Pressure 30.28 in    
Wind  
Wind Speed 20 mph (WNW)    
Max Wind Speed 30 mph    
Max Gust Speed 40 mph    
Visibility 10 miles    
Events      
Averages and records for this station are not official NWS values.
T = Trace of Precipitation, MM = Missing Value Source: NWS Daily Summary

Daily Weather History Graph

Daily Weather History Graph

Search for Another Location

Airport or City:

Trip Planner

Search our weather history database for the weather conditions in past years. The results will help you decide how hot, cold, wet, or windy it might be!

Date:

Astronomy

Dec. 20, 2012 Rise Set
Actual Time 7:49 AM CST 5:34 PM CST
Civil Twilight 7:21 AM CST 6:02 PM CST
Nautical Twilight 6:49 AM CST 6:34 PM CST
Astronomical Twilight 6:17 AM CST 7:05 PM CST
Moon 12:43 PM CST (12/20) 12:49 AM CST (12/20)
Length of Visible Light 10h 41m
Length of Day
9h 44m
First Quarter, 55% of the Moon is Illuminated
Dec 20
First Quarter
Dec 28
Full
Jan 4
Last Quarter
Jan 11
New
Jan 18
First Quarter

Hourly Weather History & Observations

Time (CST) Temp. Windchill Dew Point Humidity Pressure Visibility Wind Dir Wind Speed Gust Speed Precip Events Conditions
12:15 AM 26.6 °F 10.3 °F 17.6 °F 69% 30.08 in 10.0 mi NNW 29.9 mph 40.3 mph N/A   Clear
12:35 AM 26.6 °F 10.6 °F 15.8 °F 64% 30.09 in 10.0 mi NW 28.8 mph 40.3 mph N/A   Clear
12:55 AM 26.6 °F 11.4 °F 14.0 °F 59% 30.10 in 10.0 mi NW 25.3 mph 34.5 mph N/A   Clear
1:15 AM 26.6 °F 11.1 °F 14.0 °F 59% 30.12 in 10.0 mi NW 26.5 mph 33.4 mph N/A   Clear
1:35 AM 26.6 °F 11.1 °F 12.2 °F 55% 30.12 in 10.0 mi NNW 26.5 mph 34.5 mph N/A   Clear
1:55 AM 26.6 °F 12.0 °F 10.4 °F 51% 30.13 in 10.0 mi NNW 23.0 mph 26.5 mph N/A   Clear
2:15 AM 26.6 °F 12.0 °F 10.4 °F 51% 30.14 in 10.0 mi NNW 23.0 mph 28.8 mph N/A   Clear
2:35 AM 24.8 °F 10.0 °F 10.4 °F 54% 30.15 in 10.0 mi NNW 21.9 mph 31.1 mph N/A   Clear
2:55 AM 24.8 °F 8.7 °F 10.4 °F 54% 30.16 in 10.0 mi NNW 26.5 mph 36.8 mph N/A   Clear
3:15 AM 24.8 °F 9.0 °F 10.4 °F 54% 30.16 in 10.0 mi NNW 25.3 mph 29.9 mph N/A   Clear
3:35 AM 23.0 °F 7.6 °F 8.6 °F 54% 30.18 in 10.0 mi NNW 21.9 mph 27.6 mph N/A   Clear
3:55 AM 23.0 °F 8.3 °F 8.6 °F 54% 30.19 in 10.0 mi NW 19.6 mph 25.3 mph N/A   Clear
4:15 AM 23.0 °F 8.0 °F 8.6 °F 54% 30.21 in 10.0 mi NW 20.7 mph 25.3 mph N/A   Clear
4:35 AM 23.0 °F 9.2 °F 8.6 °F 54% 30.22 in 10.0 mi NW 17.3 mph 23.0 mph N/A   Clear
4:55 AM 21.2 °F 6.8 °F 8.6 °F 58% 30.23 in 10.0 mi NW 17.3 mph - N/A   Clear
5:15 AM 21.2 °F 7.8 °F 8.6 °F 58% 30.23 in 10.0 mi NW 15.0 mph - N/A   Clear
5:35 AM 21.2 °F 7.3 °F 6.8 °F 54% 30.23 in 10.0 mi NW 16.1 mph - N/A   Clear
5:55 AM 21.2 °F 7.3 °F 6.8 °F 54% 30.24 in 10.0 mi NW 16.1 mph - N/A   Clear
6:15 AM 21.2 °F 6.8 °F 5.0 °F 50% 30.24 in 10.0 mi NW 17.3 mph 21.9 mph N/A   Clear
6:35 AM 21.2 °F 6.4 °F 5.0 °F 50% 30.25 in 10.0 mi NW 18.4 mph - N/A   Clear
6:55 AM 21.2 °F 6.8 °F 5.0 °F 50% 30.27 in 10.0 mi NW 17.3 mph - N/A   Clear
7:15 AM 21.2 °F 6.8 °F 5.0 °F 50% 30.27 in 10.0 mi NW 17.3 mph - N/A   Clear
7:35 AM 23.0 °F 8.7 °F 5.0 °F 46% 30.28 in 10.0 mi NW 18.4 mph - N/A   Clear
7:55 AM 21.2 °F 6.8 °F 5.0 °F 50% 30.30 in 10.0 mi NW 17.3 mph - N/A   Clear
8:15 AM 23.0 °F 11.1 °F 5.0 °F 46% 30.31 in 10.0 mi NW 12.7 mph - N/A   Clear
8:35 AM 23.0 °F 11.1 °F 5.0 °F 46% 30.31 in 10.0 mi WNW 12.7 mph - N/A   Clear
8:55 AM 26.6 °F 14.3 °F 5.0 °F 40% 30.32 in 10.0 mi NW 16.1 mph - N/A   Clear
9:15 AM 28.4 °F 15.8 °F 3.2 °F 34% 30.33 in 10.0 mi NW 18.4 mph - N/A   Clear
9:35 AM 28.4 °F 15.8 °F 3.2 °F 34% 30.33 in 10.0 mi NW 18.4 mph 23.0 mph N/A   Clear
9:55 AM 32.0 °F 19.8 °F 1.4 °F 27% 30.34 in 10.0 mi NW 20.7 mph 25.3 mph N/A   Clear
10:15 AM 32.0 °F 20.5 °F -0.4 °F 25% 30.34 in 10.0 mi NW 18.4 mph 25.3 mph N/A   Clear
10:35 AM 33.8 °F 22.5 °F -0.4 °F 23% 30.35 in 10.0 mi NNW 19.6 mph 27.6 mph N/A   Clear
10:55 AM 33.8 °F 22.2 °F -2.2 °F 22% 30.35 in 10.0 mi NNW 20.7 mph 26.5 mph N/A   Clear
11:15 AM 35.6 °F 23.4 °F -4.0 °F 18% 30.35 in 10.0 mi NW 25.3 mph - N/A   Clear
11:35 AM 35.6 °F 24.5 °F -4.0 °F 18% 30.35 in 10.0 mi NW 20.7 mph 25.3 mph N/A   Clear
11:55 AM 37.4 °F 26.9 °F -4.0 °F 17% 30.35 in 10.0 mi NNW 20.7 mph 25.3 mph N/A   Clear
12:15 PM 37.4 °F 28.2 °F -4.0 °F 17% 30.34 in 10.0 mi NNW 16.1 mph 23.0 mph N/A   Clear
12:35 PM 39.2 °F 30.5 °F -4.0 °F 16% 30.34 in 10.0 mi NW 16.1 mph - N/A   Clear
12:55 PM 41.0 °F 32.2 °F -4.0 °F 15% 30.34 in 10.0 mi NW 18.4 mph 25.3 mph N/A   Clear
1:15 PM 41.0 °F 33.1 °F -4.0 °F 15% 30.34 in 10.0 mi WNW 15.0 mph - N/A   Clear
1:35 PM 41.0 °F 32.5 °F -5.8 °F 14% 30.33 in 10.0 mi WNW 17.3 mph 24.2 mph N/A   Clear
1:55 PM 42.8 °F 34.8 °F -5.8 °F 13% 30.32 in 10.0 mi WNW 17.3 mph 24.2 mph N/A   Clear
2:15 PM 42.8 °F 35.1 °F -4.0 °F 14% 30.32 in 10.0 mi WNW 16.1 mph 24.2 mph N/A   Clear
2:35 PM 42.8 °F 35.8 °F -4.0 °F 14% 30.32 in 10.0 mi WNW 13.8 mph 19.6 mph N/A   Clear
2:55 PM 44.6 °F 38.1 °F 1.4 °F 17% 30.31 in 10.0 mi WNW 13.8 mph 21.9 mph N/A   Clear
3:15 PM 44.6 °F 38.4 °F 1.4 °F 17% 30.31 in 10.0 mi West 12.7 mph 19.6 mph N/A   Clear
3:35 PM 44.6 °F 39.7 °F 3.2 °F 18% 30.32 in 10.0 mi WNW 9.2 mph - N/A   Clear
3:55 PM 44.6 °F 38.4 °F 3.2 °F 18% 30.32 in 10.0 mi WNW 12.7 mph - N/A   Clear
4:15 PM 44.6 °F 39.7 °F 3.2 °F 18% 30.31 in 10.0 mi NW 9.2 mph - N/A   Clear
4:35 PM 44.6 °F 38.4 °F 3.2 °F 18% 30.32 in 10.0 mi West 12.7 mph - N/A   Clear
4:55 PM 42.8 °F 37.5 °F 3.2 °F 19% 30.32 in 10.0 mi West 9.2 mph - N/A   Clear
5:15 PM 41.0 °F 35.8 °F 3.2 °F 21% 30.32 in 10.0 mi West 8.1 mph - N/A   Clear
5:35 PM 35.6 °F 28.6 °F 3.2 °F 26% 30.32 in 10.0 mi West 9.2 mph - N/A   Clear
5:55 PM 33.8 °F 25.8 °F 3.2 °F 28% 30.32 in 10.0 mi West 10.4 mph - N/A   Clear
6:15 PM 32.0 °F 24.2 °F 3.2 °F 30% 30.32 in 10.0 mi WSW 9.2 mph - N/A   Clear
6:35 PM 32.0 °F 24.2 °F 5.0 °F 32% 30.32 in 10.0 mi WSW 9.2 mph - N/A   Clear
6:55 PM 32.0 °F 23.6 °F 5.0 °F 32% 30.33 in 10.0 mi WSW 10.4 mph - N/A   Clear
7:15 PM 32.0 °F 23.6 °F 5.0 °F 32% 30.33 in 10.0 mi WSW 10.4 mph - N/A   Clear
7:35 PM 32.0 °F 23.6 °F 5.0 °F 32% 30.34 in 10.0 mi WSW 10.4 mph - N/A   Clear
7:55 PM 30.2 °F 21.3 °F 5.0 °F 34% 30.33 in 10.0 mi WSW 10.4 mph - N/A   Clear
8:15 PM 32.0 °F 23.0 °F 5.0 °F 32% 30.33 in 10.0 mi WSW 11.5 mph - N/A   Clear
8:35 PM 30.2 °F 20.8 °F 5.0 °F 34% 30.34 in 10.0 mi WSW 11.5 mph - N/A   Clear
8:55 PM 32.0 °F 23.0 °F 5.0 °F 32% 30.34 in 10.0 mi WSW 11.5 mph - N/A   Clear
9:15 PM 30.2 °F 21.3 °F 3.2 °F 32% 30.34 in 10.0 mi WSW 10.4 mph - N/A   Clear
9:35 PM 32.0 °F 24.8 °F 3.2 °F 30% 30.34 in 10.0 mi WSW 8.1 mph - N/A   Clear
9:55 PM 32.0 °F 23.0 °F 3.2 °F 30% 30.34 in 10.0 mi WSW 11.5 mph - N/A   Clear
10:15 PM 32.0 °F 23.0 °F 3.2 °F 30% 30.34 in 10.0 mi SW 11.5 mph - N/A   Clear
10:35 PM 33.8 °F 25.8 °F 3.2 °F 28% 30.34 in 10.0 mi SW 10.4 mph - N/A   Clear
10:55 PM 32.0 °F 22.5 °F 1.4 °F 27% 30.34 in 10.0 mi SW 12.7 mph - N/A   Clear
11:15 PM 33.8 °F 23.9 °F 1.4 °F 25% 30.33 in 10.0 mi SW 15.0 mph - N/A   Clear
11:35 PM 33.8 °F 24.8 °F 1.4 °F 25% 30.33 in 10.0 mi SW 12.7 mph - N/A   Clear
11:55 PM 32.0 °F 22.1 °F 1.4 °F 27% 30.33 in 10.0 mi SW 13.8 mph - N/A   Clear